Find Starlink 3243

NORAD ID: 51116 Int'l Des: 2022-005 Owner: SPXS Country: US Constellation: starlink operational
LEOCIRCULAR

現在のビュー

3D地球を読み込み中...

About Starlink 3243

Starlink 3243 (NORAD 51116) is a starlink constellation satellite (v1.5) launched Jan 19, 2022 by SPXS of US. It operates in LEO, CIRCULAR orbit with a mass of 297.00 kg.

Starlink 3243について

説明を読み込み中...

次回通過

Passes for default location (London). Set your location on the main map for personalized predictions.

高度履歴

Loading altitude history...

軌道要素

1 51116U 22005N 26171.36475420 -.00000206 00000-0 51720-5 0 9990
2 51116 53.1600 188.0517 0001168 80.7867 279.3256 15.08830886244374
Epoch: Jun 20, 2026 • Age: 28 hours

現在のステータス

高度 543.3 km
速度 7.59 km/s
衛星直下点 -12.17°S, 87.27°W
打ち上げ日 Jan 19, 2022
運用期間 4.4 years
タイプ internet

技術仕様

分類 Payload
質量 297.00 kg
乾燥質量 275.00 kg
総質量 297.00 kg
長さ 0.20 m
直径 2.80 m
スパン 9.00 m
形状 Box + pan
製造者 SPXS
バスタイプ Starlink
フェーズステータス In Orbit
所有者/国 SPXS/US

Most Searched